| time (UTC) | temp F | wind direction | speed MPH | gust MPH | rain 1hr in | rain 24hr in | rain mn in | humidity % | barometer mb |
| 20260903194516 | 101 | 158 | 3.0 | 7.0 | 0.00 | 0.00 | 0.00 | 28 | 1011.6 |
| 20260903193516 | 100 | 135 | 3.0 | 6.0 | 0.00 | 0.00 | 0.00 | 30 | 1011.8 |
| 20260903192515 | 102 | 90 | 3.0 | 9.0 | 0.00 | 0.00 | 0.00 | 28 | 1011.8 |
| 20260903191515 | 103 | 23 | 2.0 | 4.0 | 0.00 | 0.00 | 0.00 | 27 | 1012.0 |
| 20260903190516 | 103 | 68 | 5.0 | 11.0 | 0.00 | 0.00 | 0.00 | 26 | 1012.3 |
| 20260903185515 | 102 | 135 | 3.0 | 6.0 | 0.00 | 0.00 | 0.00 | 27 | 1012.5 |
| 20260903184515 | 102 | 0 | 1.0 | 3.0 | 0.00 | 0.00 | 0.00 | 28 | 1012.7 |
| 20260903183515 | 102 | 135 | 5.0 | 10.0 | 0.00 | 0.00 | 0.00 | 29 | 1012.8 |
| 20260903182516 | 100 | 23 | 1.0 | 4.0 | 0.00 | 0.00 | 0.00 | 30 | 1013.0 |
| 20260903181515 | 102 | 68 | 3.0 | 8.0 | 0.00 | 0.00 | 0.00 | 29 | 1013.4 |
| 20260903180515 | 102 | 45 | 2.0 | 4.0 | 0.00 | 0.00 | 0.00 | 28 | 1013.5 |
| 20260903175516 | 100 | 135 | 2.0 | 5.0 | 0.00 | 0.00 | 0.00 | 29 | 1013.6 |
| 20260903174516 | 101 | 225 | 3.0 | 9.0 | 0.00 | 0.00 | 0.00 | 30 | 1013.8 |
| 20260903173515 | 99 | 203 | 4.0 | 8.0 | 0.00 | 0.00 | 0.00 | 30 | 1013.8 |
| 20260903172515 | 99 | 180 | 6.0 | 10.0 | 0.00 | 0.00 | 0.00 | 37 | 1014.1 |
| 20260903171515 | 98 | 248 | 4.0 | 8.0 | 0.00 | 0.00 | 0.00 | 37 | 1014.1 |
| 20260903170515 | 98 | 248 | 6.0 | 12.0 | 0.00 | 0.00 | 0.00 | 38 | 1014.2 |
| 20260903165516 | 96 | 203 | 4.0 | 7.0 | 0.00 | 0.00 | 0.00 | 42 | 1014.3 |
| 20260903164516 | 96 | 203 | 5.0 | 10.0 | 0.00 | 0.00 | 0.00 | 43 | 1014.3 |
| 20260903163515 | 95 | 225 | 6.0 | 10.0 | 0.00 | 0.00 | 0.00 | 44 | 1014.2 |
| 20260903162515 | 95 | 180 | 8.0 | 13.0 | 0.00 | 0.00 | 0.00 | 46 | 1014.2 |
| 20260903161515 | 94 | 203 | 6.0 | 11.0 | 0.00 | 0.00 | 0.00 | 47 | 1014.3 |
| 20260903160516 | 93 | 203 | 5.0 | 11.0 | 0.00 | 0.00 | 0.00 | 47 | 1014.2 |
| 20260903155515 | 92 | 225 | 6.0 | 11.0 | 0.00 | 0.00 | 0.00 | 49 | 1014.2 |
| 20260903154515 | 91 | 225 | 4.0 | 10.0 | 0.00 | 0.00 | 0.00 | 51 | 1014.1 |
| 20260903153516 | 90 | 225 | 5.0 | 10.0 | 0.00 | 0.00 | 0.00 | 53 | 1013.9 |
| 20260903152515 | 89 | 203 | 6.0 | 12.0 | 0.00 | 0.00 | 0.00 | 55 | 1014.0 |
| 20260903151515 | 89 | 225 | 4.0 | 12.0 | 0.00 | 0.00 | 0.00 | 56 | 1014.0 |
| 20260903150516 | 87 | 203 | 6.0 | 11.0 | 0.00 | 0.00 | 0.00 | 58 | 1014.0 |
| 20260903145516 | 86 | 248 | 4.0 | 10.0 | 0.00 | 0.00 | 0.00 | 61 | 1014.0 |
| 20260903144515 | 85 | 203 | 6.0 | 12.0 | 0.00 | 0.00 | 0.00 | 64 | 1014.0 |
| 20260903143515 | 84 | 203 | 5.0 | 10.0 | 0.00 | 0.00 | 0.00 | 64 | 1014.1 |
| 20260903142515 | 83 | 203 | 5.0 | 10.0 | 0.00 | 0.00 | 0.00 | 66 | 1014.1 |
| 20260903141515 | 82 | 248 | 5.0 | 9.0 | 0.00 | 0.00 | 0.00 | 67 | 1014.1 |
| 20260903140515 | 82 | 225 | 6.0 | 12.0 | 0.00 | 0.00 | 0.00 | 68 | 1014.2 |
| 20260903135515 | 81 | 225 | 5.0 | 10.0 | 0.00 | 0.00 | 0.00 | 69 | 1014.2 |
| 20260903134515 | 80 | 225 | 3.0 | 9.0 | 0.00 | 0.00 | 0.00 | 71 | 1014.4 |
| 20260903133515 | 79 | 248 | 3.0 | 5.0 | 0.00 | 0.00 | 0.00 | 72 | 1014.3 |
| 20260903132515 | 78 | 225 | 2.0 | 4.0 | 0.00 | 0.00 | 0.00 | 73 | 1014.2 |
| 20260903131516 | 77 | 203 | 1.0 | 4.0 | 0.00 | 0.00 | 0.00 | 74 | 1014.3 |
| 20260903130516 | 76 | 248 | 1.0 | 2.0 | 0.00 | 0.00 | 0.00 | 73 | 1014.0 |
| 20260903125515 | 76 | 248 | 2.0 | 4.0 | 0.00 | 0.00 | 0.00 | 73 | 1013.9 |
| 20260903124515 | 77 | 248 | 3.0 | 4.0 | 0.00 | 0.00 | 0.00 | 71 | 1014.1 |
| 20260903123515 | 76 | 248 | 4.0 | 7.0 | 0.00 | 0.00 | 0.00 | 72 | 1013.9 |
| 20260903122516 | 77 | 248 | 3.0 | 7.0 | 0.00 | 0.00 | 0.00 | 71 | 1013.8 |
| 20260903121515 | 77 | 203 | 4.0 | 8.0 | 0.00 | 0.00 | 0.00 | 71 | 1013.7 |
| 20260903120515 | 77 | 203 | 4.0 | 9.0 | 0.00 | 0.00 | 0.00 | 70 | 1013.8 |
| 20260903115519 | 77 | 203 | 4.0 | 11.0 | 0.00 | 0.00 | 0.00 | 70 | 1013.8 |
| 20260903114519 | 77 | 225 | 4.0 | 8.0 | 0.00 | 0.00 | 0.00 | 69 | 1013.8 |
| 20260903113519 | 77 | 225 | 2.0 | 5.0 | 0.00 | 0.00 | 0.00 | 68 | 1013.8 |
| 20260903112516 | 77 | 203 | 4.0 | 10.0 | 0.00 | 0.00 | 0.00 | 67 | 1013.8 |
| 20260903111516 | 77 | 203 | 4.0 | 8.0 | 0.00 | 0.00 | 0.00 | 66 | 1013.9 |
| 20260903110515 | 77 | 225 | 3.0 | 8.0 | 0.00 | 0.00 | 0.00 | 64 | 1013.9 |
| 20260903105515 | 77 | 225 | 3.0 | 10.0 | 0.00 | 0.00 | 0.00 | 63 | 1013.7 |
| 20260903104515 | 77 | 203 | 2.0 | 6.0 | 0.00 | 0.00 | 0.00 | 63 | 1013.8 |
| 20260903103515 | 76 | 225 | 2.0 | 4.0 | 0.00 | 0.00 | 0.00 | 63 | 1013.5 |
| 20260903102516 | 76 | 225 | 1.0 | 4.0 | 0.00 | 0.00 | 0.00 | 61 | 1013.5 |
| 20260903101515 | 77 | 248 | 1.0 | 3.0 | 0.00 | 0.00 | 0.00 | 60 | 1013.5 |
| 20260903100516 | 76 | 248 | 2.0 | 3.0 | 0.00 | 0.00 | 0.00 | 60 | 1013.4 |
| 20260903095515 | 77 | 248 | 2.0 | 3.0 | 0.00 | 0.00 | 0.00 | 59 | 1013.4 |
| 20260903094516 | 77 | 270 | 2.0 | 2.0 | 0.00 | 0.00 | 0.00 | 59 | 1013.5 |
| 20260903093515 | 77 | 248 | 1.0 | 2.0 | 0.00 | 0.00 | 0.00 | 58 | 1013.5 |
| 20260903092516 | 77 | 270 | 1.0 | 1.0 | 0.00 | 0.00 | 0.00 | 58 | 1013.5 |
| 20260903091515 | 77 | 270 | 1.0 | 2.0 | 0.00 | 0.00 | 0.00 | 58 | 1013.5 |
| 20260903090515 | 78 | 270 | 1.0 | 2.0 | 0.00 | 0.00 | 0.00 | 58 | 1013.5 |
| 20260903085515 | 77 | 225 | 1.0 | 2.0 | 0.00 | 0.00 | 0.00 | 58 | 1013.4 |
| 20260903084516 | 77 | 248 | 1.0 | 2.0 | 0.00 | 0.00 | 0.00 | 59 | 1013.5 |
| 20260903083516 | 77 | 203 | 1.0 | 1.0 | 0.00 | 0.00 | 0.00 | 60 | 1013.6 |
| 20260903082516 | 77 | 203 | 1.0 | 2.0 | 0.00 | 0.00 | 0.00 | 61 | 1013.7 |
| 20260903081515 | 76 | 180 | 1.0 | 2.0 | 0.00 | 0.00 | 0.00 | 62 | 1013.8 |
| 20260903080516 | 77 | 180 | 2.0 | 2.0 | 0.00 | 0.00 | 0.00 | 61 | 1013.7 |
| 20260903075516 | 77 | 180 | 2.0 | 4.0 | 0.00 | 0.00 | 0.00 | 60 | 1013.8 |
| 20260903074515 | 79 | 203 | 4.0 | 5.0 | 0.00 | 0.00 | 0.00 | 57 | 1013.9 |
| 20260903073516 | 80 | 203 | 4.0 | 5.0 | 0.00 | 0.00 | 0.00 | 55 | 1014.0 |
| 20260903072515 | 80 | 180 | 3.0 | 4.0 | 0.00 | 0.00 | 0.00 | 56 | 1014.1 |
| 20260903071516 | 80 | 203 | 3.0 | 4.0 | 0.00 | 0.00 | 0.00 | 55 | 1014.1 |
| 20260903070516 | 80 | 180 | 2.0 | 3.0 | 0.00 | 0.00 | 0.00 | 57 | 1014.1 |
| 20260903065516 | 80 | 180 | 3.0 | 4.0 | 0.00 | 0.00 | 0.00 | 56 | 1014.1 |
| 20260903064515 | 81 | 180 | 2.0 | 3.0 | 0.00 | 0.00 | 0.00 | 54 | 1014.2 |
| 20260903063516 | 81 | 158 | 3.0 | 4.0 | 0.00 | 0.00 | 0.00 | 54 | 1014.2 |
| 20260903062515 | 81 | 135 | 3.0 | 4.0 | 0.00 | 0.00 | 0.00 | 54 | 1014.2 |
| 20260903061516 | 82 | 158 | 3.0 | 4.0 | 0.00 | 0.00 | 0.00 | 53 | 1014.3 |
| 20260903060515 | 83 | 135 | 4.0 | 6.0 | 0.00 | 0.00 | 0.00 | 51 | 1014.4 |
| 20260903055515 | 84 | 135 | 5.0 | 8.0 | 0.00 | 0.00 | 0.00 | 50 | 1014.5 |
| 20260903054515 | 84 | 135 | 7.0 | 9.0 | 0.00 | 0.00 | 0.00 | 49 | 1014.4 |
| 20260903053516 | 84 | 135 | 6.0 | 9.0 | 0.00 | 0.00 | 0.00 | 49 | 1014.3 |
| 20260903052516 | 85 | 135 | 7.0 | 11.0 | 0.00 | 0.00 | 0.00 | 48 | 1014.3 |
| 20260903051515 | 85 | 135 | 7.0 | 11.0 | 0.00 | 0.00 | 0.00 | 48 | 1014.0 |
| 20260903050515 | 85 | 135 | 8.0 | 11.0 | 0.00 | 0.00 | 0.00 | 47 | 1014.1 |
| 20260903045515 | 85 | 135 | 7.0 | 11.0 | 0.00 | 0.00 | 0.00 | 47 | 1014.0 |
| 20260903044515 | 84 | 135 | 5.0 | 9.0 | 0.00 | 0.00 | 0.00 | 47 | 1013.9 |
| 20260903043516 | 84 | 113 | 6.0 | 8.0 | 0.00 | 0.00 | 0.00 | 47 | 1013.9 |
| 20260903042515 | 84 | 135 | 4.0 | 7.0 | 0.00 | 0.00 | 0.00 | 46 | 1014.0 |
| 20260903041516 | 85 | 135 | 4.0 | 5.0 | 0.00 | 0.00 | 0.00 | 45 | 1013.9 |
| 20260903040516 | 86 | 135 | 6.0 | 9.0 | 0.00 | 0.00 | 0.00 | 44 | 1014.1 |
| 20260903035515 | 86 | 113 | 8.0 | 11.0 | 0.00 | 0.00 | 0.00 | 43 | 1013.8 |
| 20260903034515 | 86 | 135 | 8.0 | 10.0 | 0.00 | 0.00 | 0.00 | 43 | 1013.7 |
| 20260903033515 | 86 | 113 | 7.0 | 9.0 | 0.00 | 0.00 | 0.00 | 42 | 1013.6 |
| 20260903032516 | 85 | 135 | 6.0 | 9.0 | 0.00 | 0.00 | 0.00 | 42 | 1013.3 |
| 20260903031515 | 86 | 113 | 5.0 | 8.0 | 0.00 | 0.00 | 0.00 | 42 | 1013.1 |
| 20260903030515 | 86 | 135 | 5.0 | 7.0 | 0.00 | 0.00 | 0.00 | 42 | 1012.9 |
| 20260903025516 | 86 | 113 | 4.0 | 7.0 | 0.00 | 0.00 | 0.00 | 41 | 1012.8 |
| 20260903024515 | 87 | 113 | 4.0 | 6.0 | 0.00 | 0.00 | 0.00 | 40 | 1012.5 |
| 20260903023515 | 88 | 113 | 4.0 | 6.0 | 0.00 | 0.00 | 0.00 | 40 | 1012.4 |
| 20260903022515 | 88 | 135 | 4.0 | 7.0 | 0.00 | 0.00 | 0.00 | 40 | 1012.4 |
| 20260903021516 | 88 | 113 | 5.0 | 6.0 | 0.00 | 0.00 | 0.00 | 40 | 1012.1 |
| 20260903020516 | 89 | 113 | 4.0 | 6.0 | 0.00 | 0.00 | 0.00 | 39 | 1012.1 |
| 20260903015515 | 89 | 113 | 2.0 | 4.0 | 0.00 | 0.00 | 0.00 | 39 | 1012.0 |
| 20260903014515 | 90 | 90 | 1.0 | 3.0 | 0.00 | 0.00 | 0.00 | 39 | 1011.7 |
| 20260903013516 | 90 | 90 | 1.0 | 2.0 | 0.00 | 0.00 | 0.00 | 38 | 1011.6 |
| 20260903012516 | 91 | 0.0 | 1.0 | 0.00 | 0.00 | 0.00 | 37 | 1011.6 | |
| 20260903011516 | 92 | 90 | 1.0 | 1.0 | 0.00 | 0.00 | 0.00 | 36 | 1011.5 |
| 20260903010516 | 93 | 90 | 1.0 | 1.0 | 0.00 | 0.00 | 0.00 | 34 | 1011.4 |
| 20260903005516 | 94 | 90 | 1.0 | 1.0 | 0.00 | 0.00 | 0.00 | 34 | 1011.5 |
| 20260903004516 | 95 | 90 | 1.0 | 3.0 | 0.00 | 0.00 | 0.00 | 34 | 1011.6 |
| 20260903003516 | 96 | 90 | 1.0 | 2.0 | 0.00 | 0.00 | 0.00 | 32 | 1011.7 |
| 20260903002515 | 97 | 90 | 1.0 | 2.0 | 0.00 | 0.00 | 0.00 | 31 | 1011.7 |
| 20260903001516 | 98 | 90 | 1.0 | 2.0 | 0.00 | 0.00 | 0.00 | 31 | 1011.7 |
| 20260903000515 | 98 | 90 | 3.0 | 9.0 | 0.00 | 0.00 | 0.00 | 29 | 1011.7 |
| 20260902235516 | 99 | 68 | 4.0 | 8.0 | 0.00 | 0.00 | 0.00 | 29 | 1011.9 |
| 20260902234516 | 99 | 90 | 3.0 | 7.0 | 0.00 | 0.00 | 0.00 | 29 | 1011.8 |
| 20260902233515 | 99 | 90 | 3.0 | 9.0 | 0.00 | 0.00 | 0.00 | 29 | 1011.9 |
| 20260902232519 | 100 | 90 | 4.0 | 9.0 | 0.00 | 0.00 | 0.00 | 28 | 1012.1 |
| 20260902231519 | 100 | 135 | 1.0 | 4.0 | 0.00 | 0.00 | 0.00 | 27 | 1012.1 |
| 20260902230519 | 101 | 113 | 4.0 | 8.0 | 0.00 | 0.00 | 0.00 | 28 | 1012.2 |
| 20260902225516 | 101 | 113 | 3.0 | 7.0 | 0.00 | 0.00 | 0.00 | 28 | 1012.3 |
| 20260902224516 | 101 | 113 | 3.0 | 7.0 | 0.00 | 0.00 | 0.00 | 28 | 1012.3 |
| 20260902223516 | 100 | 135 | 2.0 | 3.0 | 0.00 | 0.00 | 0.00 | 28 | 1012.3 |
| 20260902222516 | 100 | 68 | 3.0 | 6.0 | 0.00 | 0.00 | 0.00 | 28 | 1012.3 |
| 20260902221515 | 101 | 158 | 2.0 | 4.0 | 0.00 | 0.00 | 0.00 | 28 | 1012.5 |
| 20260902220515 | 101 | 45 | 1.0 | 5.0 | 0.00 | 0.00 | 0.00 | 29 | 1012.5 |
| 20260902215515 | 101 | 45 | 1.0 | 4.0 | 0.00 | 0.00 | 0.00 | 28 | 1012.5 |
| 20260902214516 | 100 | 135 | 3.0 | 7.0 | 0.00 | 0.00 | 0.00 | 29 | 1012.7 |
| 20260902213516 | 100 | 180 | 4.0 | 7.0 | 0.00 | 0.00 | 0.00 | 29 | 1012.8 |
| 20260902212516 | 100 | 180 | 4.0 | 9.0 | 0.00 | 0.00 | 0.00 | 30 | 1013.0 |
| 20260902211516 | 101 | 158 | 3.0 | 6.0 | 0.00 | 0.00 | 0.00 | 30 | 1013.2 |
| 20260902210516 | 100 | 135 | 6.0 | 11.0 | 0.00 | 0.00 | 0.00 | 30 | 1013.3 |
| 20260902205516 | 101 | 90 | 4.0 | 9.0 | 0.00 | 0.00 | 0.00 | 30 | 1013.4 |
| 20260902204515 | 101 | 180 | 2.0 | 5.0 | 0.00 | 0.00 | 0.00 | 31 | 1013.7 |
| 20260902203515 | 100 | 135 | 6.0 | 10.0 | 0.00 | 0.00 | 0.00 | 31 | 1013.8 |
| 20260902202515 | 100 | 135 | 8.0 | 13.0 | 0.00 | 0.00 | 0.00 | 31 | 1013.9 |
| 20260902201516 | 100 | 68 | 3.0 | 7.0 | 0.00 | 0.00 | 0.00 | 31 | 1014.1 |
| 20260902200516 | 101 | 68 | 3.0 | 8.0 | 0.00 | 0.00 | 0.00 | 31 | 1014.2 |
| 20260902195516 | 100 | 45 | 3.0 | 7.0 | 0.00 | 0.00 | 0.00 | 31 | 1014.3 |